Location: Newark
(43.0000°N, 1.6781°W)
Time: 04:24:47
(UTC+00:00)

N. Korean satellite - Pass Details

Date: 05 December 2021
Orbit: 447 x 491 km, 97.3° (Epoch: 25 January)

Event Time Altitude Azimuth Distance (km) Brightness Sun altitude
Rises 05:54:47 0° 2° (N) 2,464 10.0 -15.5°
Reaches altitude 10° 05:56:56 10° 353° (N) 1,584 8.9 -15.1°
Maximum altitude 06:00:01 33° 288° (WNW) 774 7.0 -14.6°
Drops below altitude 10° 06:03:04 10° 222° (SW) 1,570 8.9 -14.1°
Sets 06:05:12 0° 213° (SSW) 2,439 10.0 -13.7°
